Satellite: GOLIAT Catalog number: 38085 Epoch time: 13108.77847655 Element set: 978 Inclination: 069.4851 deg RA of node: 326.2348 deg Eccentricity: 0.0655185 Arg of perigee: 216.1504 deg Mean anomaly: 139.3525 deg Mean motion: 14.37126919 rev/day Decay rate: 3.2588e-04 rev/day^2 Epoch rev: 6112 Checksum: 334
Satellite: HORYU-2 Catalog number: 38340 Epoch time: 13108.85167217 Element set: 466 Inclination: 098.2122 deg RA of node: 056.0144 deg Eccentricity: 0.0013816 Arg of perigee: 081.6779 deg Mean anomaly: 278.5944 deg Mean motion: 14.70778513 rev/day Decay rate: 1.341e-05 rev/day^2 Epoch rev: 4939 Checksum: 312
Satellite: RS-40 Catalog number: 38736 Epoch time: 13108.66505011 Element set: 245 Inclination: 082.4793 deg RA of node: 192.2266 deg Eccentricity: 0.0022998 Arg of perigee: 097.4412 deg Mean anomaly: 262.9280 deg Mean motion: 12.42877321 rev/day Decay rate: 1.0e-07 rev/day^2 Epoch rev: 3285 Checksum: 293
Satellite: PROITERES Catalog number: 38756 Epoch time: 13108.99628269 Element set: 699 Inclination: 098.2560 deg RA of node: 184.9468 deg Eccentricity: 0.0011643 Arg of perigee: 298.5006 deg Mean anomaly: 061.5038 deg Mean motion: 14.74149579 rev/day Decay rate: 6.90e-06 rev/day^2 Epoch rev: 3267 Checksum: 348
Satellite: RAIKO Catalog number: 38852 Epoch time: 13107.93569444 Element set: 199 Inclination: 051.6409 deg RA of node: 037.5319 deg Eccentricity: 0.0015253 Arg of perigee: 137.9511 deg Mean anomaly: 222.2659 deg Mean motion: 15.67939828 rev/day Decay rate: 6.4781e-04 rev/day^2 Epoch rev: 3038 Checksum: 330
Satellite: FITSAT 1 Catalog number: 38853 Epoch time: 13107.85867823 Element set: 200 Inclination: 051.6426 deg RA of node: 035.5381 deg Eccentricity: 0.0012650 Arg of perigee: 149.8273 deg Mean anomaly: 210.3457 deg Mean motion: 15.72709848 rev/day Decay rate: 9.4773e-04 rev/day^2 Epoch rev: 3045 Checksum: 308
Satellite: TechEdSat Catalog number: 38854 Epoch time: 13108.73343754 Element set: 243 Inclination: 051.6330 deg RA of node: 024.0001 deg Eccentricity: 0.0011318 Arg of perigee: 167.8053 deg Mean anomaly: 192.3592 deg Mean motion: 15.92638908 rev/day Decay rate: 4.16188e-03 rev/day^2 Epoch rev: 3068 Checksum: 288
Satellite: F 1 Catalog number: 38855 Epoch time: 13108.62294588 Element set: 232 Inclination: 051.6360 deg RA of node: 025.5120 deg Eccentricity: 0.0010251 Arg of perigee: 158.4085 deg Mean anomaly: 201.7432 deg Mean motion: 15.89000935 rev/day Decay rate: 3.26261e-03 rev/day^2 Epoch rev: 3055 Checksum: 268
Satellite: WeWish Catalog number: 38856 Epoch time: 13069.98095549 Element set: 248 Inclination: 051.6166 deg RA of node: 215.0521 deg Eccentricity: 0.0008325 Arg of perigee: 316.0438 deg Mean anomaly: 044.8765 deg Mean motion: 16.41348316 rev/day Decay rate: 1.6701328e-01 rev/day^2 Epoch rev: 2458 Checksum: 318
/EX